IRIDIUM 124

Last updated on Tue Sep 22 2026 00:03:21 GMT+0000 (Coordinated Universal Time)

1 42810U 17039H 26263.52095478 .00000123 00000+0 30625-4 0 9999 2 42810 86.4440 250.4763 0002336 86.4115 273.7353 14.43280711488864
UTC large
Height (km)
Speed (km/s)
/
Latitude / Longitude
Inclination (degrees)
Orbital Period (minutes)
Azimuth
Elevation
Range (km)
Doppler Factor

Next 0 passes for location: London (51.5072 / 0.1276)

No passes found over London.
IRIDIUM 124